Погода в Белом Ю

Россия / Республика Коми     65°16′31″N   57°07′11″E
темп.,
°C
ветер,
м/с
пор.,
м/с
влажн.,
%
обл.,
%
осадки,
мм/ч
давл.,
гПа
погр.,
м
13 апреля, вт
вт1300:00+2зюз51180100 0.0 1027398
03:00+1юз3798100 0.3 1027278
06:000ююз3999100 2.4 1025415
09:00+1ююв24100100 3.6 1024101
12:00+5юз51295100 0.3 1021438
15:00+7юз71489100 0.4 1019585
18:00+5юз4994100 0.1 1018304
21:00+4юз41095100 0.1 1017281
14 апреля, ср
ср1400:00+4юз3897100 0.0 1018191
03:00+4юз4897100 0.1 1018213
06:00+4юз4997100 0.1 1018216
09:00+6ююз51092100 0.1 1017340
12:00+8ююз51087100 0.0 1015505
15:00+8ююз51193100 0.0 1013507
18:00+8ююз61393100 0.2 1009516
21:00+11юз81784100 1.9 1005985
15 апреля, чт
чт1500:00+2сз41096100 2.6 1010539
03:00+2з4988100 3.2 1011891
06:00+2зсз61071100 0.1 10121157
09:00+2зсз71063100 0.1 10151500
12:00+3зсз8125592 0.1 10161839
15:00+2ссз7966100 0.3 10191394
18:00−3ссв686428 0.1 1024914
21:00−4ссв46628 0.1 1026740
16 апреля, пт
пт1600:00−4св34557 0.0 1027639
03:00−5всв22505 0.0 1028530
06:00−4юв1149100 0.0 1027451
09:00−2ю2338100 0.0 1026595
12:00+1ююз343198 0.0 10241173
15:00+1зюз2442100 0.0 10231368
18:000сз2265100 0.0 102266
21:00−5с10177263 0.4 1024656
17 апреля, сб
сб1700:00−8ссв813615 0.0 10281048
03:00−9ссв713490 0.0 10311189
06:00−8ссв611535 0.0 10321186
09:00−6ссв57360 0.0 10321086
12:00−4ссв3328100 0.0 10311001
15:00−3зюз1127100 0.0 1029830
18:00−3ю4529100 0.0 1026705
21:00−3ю61038100 0.1 1022789